EW7069 Weather Reports


Display with metric or nautical units.
time (UTC)temp
F
wind
direction
speed
MPH
gust
MPH
rain 1hr
in
rain 24hr
in
rain mn
in
humidity
%
barometer
mb
20260902224001 93 135 5.0 8.0 0.00 0.00 0.00 36 1007.7
20260902223002 94 135 5.0 8.0 0.00 0.00 0.00 35 1007.7
20260902222001 95 135 6.0 10.0 0.00 0.00 0.00 33 1007.8
20260902220001 94 135 8.0 14.0 0.00 0.00 0.00 34 1007.3
20260902215002 95 135 7.0 9.0 0.00 0.00 0.00 33 1007.3
20260902214002 95 135 6.0 7.0 0.00 0.00 0.00 34 1007.2
20260902213001 96 135 6.0 10.0 0.00 0.00 0.00 33 1007.2
20260902211001 96 135 6.0 10.0 0.00 0.00 0.00 34 1007.4
20260902210001 95 135 6.0 11.0 0.00 0.00 0.00 35 1007.4
20260902205002 97 135 7.0 9.0 0.00 0.00 0.00 33 1007.5
20260902204001 97 135 6.0 11.0 0.00 0.00 0.00 34 1007.2
20260902203001 96 135 6.0 11.0 0.00 0.00 0.00 34 1007.2
20260902202002 96 135 6.0 11.0 0.00 0.00 0.00 34 1007.3
20260902201002 96 265 7.0 13.0 0.00 0.00 0.00 33 1007.5
20260902200001 96 314 6.0 8.0 0.00 0.00 0.00 34 1007.5
20260902195002 95 314 5.0 7.0 0.00 0.00 0.00 35 1007.6
20260902194001 95 314 5.0 8.0 0.00 0.00 0.00 36 1008.2
20260902193002 94 314 6.0 9.0 0.00 0.00 0.00 36 999.9
20260902192003 94 314 7.0 11.0 0.00 0.00 0.00 35 999.8
20260902191001 95 314 6.0 11.0 0.00 0.00 0.00 37 999.8
20260902190002 95 314 5.0 9.0 0.00 0.00 0.00 37 999.8
20260902185002 94 314 5.0 8.0 0.00 0.00 0.00 39 1009.0
20260902184002 94 336 5.0 8.0 0.00 0.00 0.00 40 1008.7
20260902183001 93 235 5.0 8.0 0.00 0.00 0.00 40 1009.0
20260902182002 91 277 4.0 7.0 0.00 0.00 0.00 42 1008.6
20260902181002 91 254 4.0 6.0 0.00 0.00 0.00 39 999.9
20260902180001 91 252 5.0 8.0 0.00 0.00 0.00 39 1008.8
20260902174002 80 0 0.0 0.0 0.00 0.00 0.00 59 1008.9
20260902173001 80 0 0.0 0.0 0.00 0.00 0.00 59 1009.3
20260902172002 80 0 0.0 0.0 0.00 0.00 0.00 59 1009.0
20260902171002 80 0 0.0 0.0 0.00 0.00 0.00 59 1009.2
20260902170002 80 0 0.0 0.0 0.00 0.00 0.00 59 1009.0
20260902165002 80 0 0.0 0.0 0.00 0.00 0.00 59 1009.0
20260902164002 80 0 0.0 0.0 0.00 0.00 0.00 59 1009.2
20260902163002 80 0 0.0 0.0 0.00 0.00 0.00 59 1009.1
20260902161002 80 0 0.0 0.0 0.00 0.00 0.00 59 1009.0
20260902160002 80 0 0.0 0.0 0.00 0.00 0.00 59 1009.2
20260902155002 80 0 0.0 0.0 0.00 0.00 0.00 59 1008.9
20260902154002 80 0 0.0 0.0 0.00 0.00 0.00 59 1008.7
20260902153002 80 0 0.0 0.0 0.00 0.00 0.00 59 1009.0
20260902152002 80 0 0.0 0.0 0.00 0.00 0.00 59 1008.5
20260902151003 80 0 0.0 0.0 0.00 0.00 0.00 59 1009.0
20260902150002 80 0 0.0 0.0 0.00 0.00 0.00 59 1008.7
20260902145002 80 0 0.0 0.0 0.00 0.00 0.00 59 1009.1
20260902144002 80 0 0.0 0.0 0.00 0.00 0.00 59 1008.8
20260902143002 80 0 0.0 0.0 0.00 0.00 0.00 59 1008.5
20260902142002 80 0 0.0 0.0 0.00 0.00 0.00 59 1009.0
20260902141002 80 0 0.0 0.0 0.00 0.00 0.00 59 1008.7
20260902140002 80 0 0.0 0.0 0.00 0.00 0.00 59 1008.5
20260902135002 80 0 0.0 0.0 0.00 0.00 0.00 59 1008.1
20260902134002 80 0 0.0 0.0 0.00 0.00 0.00 59 1007.8
20260902133002 80 0 0.0 0.0 0.00 0.00 0.00 59 1007.8
20260902132002 80 0 0.0 0.0 0.00 0.00 0.00 59 1007.6
20260902131002 80 0 0.0 0.0 0.00 0.00 0.00 59 1007.4
20260902130002 80 0 0.0 0.0 0.00 0.00 0.00 59 1007.4
20260902124002 80 0 0.0 0.0 0.00 0.00 0.00 59 1006.5
20260902122002 80 0 0.0 0.0 0.00 0.00 0.00 59 1006.1
20260902121002 80 0 0.0 0.0 0.00 0.00 0.00 59 1005.9
20260902120002 80 0 0.0 0.0 0.00 0.00 0.00 59 1005.6
20260902115002 80 0 0.0 0.0 0.00 0.00 0.00 59 1005.3
20260902114002 80 0 0.0 0.0 0.00 0.00 0.00 59 1004.9
20260902113002 80 0 0.0 0.0 0.00 0.00 0.00 59 1004.6
20260902111002 80 0 0.0 0.0 0.00 0.00 0.00 59 1003.6
20260902110002 80 0 0.0 0.0 0.00 0.08 0.00 59 1003.2
20260902105001 80 0 0.0 0.0 0.00 0.08 0.00 59 1002.6
20260902104002 80 0 0.0 0.0 0.00 0.08 0.00 59 1002.0
20260902103002 80 0 0.0 0.0 0.00 0.08 0.00 59 1002.1
20260902102002 80 0 0.0 0.0 0.00 0.08 0.00 59 1002.0
20260902101002 80 0 0.0 0.0 0.00 0.08 0.00 59 1001.8
20260902100002 80 0 0.0 0.0 0.00 0.08 0.00 59 1002.1
20260902094002 80 0 0.0 0.0 0.00 0.08 0.00 59 1002.1
20260902093002 80 0 0.0 0.0 0.00 0.08 0.00 59 1001.6
20260902092003 80 0 0.0 0.0 0.00 0.08 0.00 59 1002.1
20260902090002 80 0 0.0 0.0 0.00 0.08 0.00 59 1001.9
20260902084002 80 0 0.0 0.0 0.00 0.08 0.00 59 1001.9
20260902083002 80 0 0.0 0.0 0.00 0.08 0.00 59 1001.4
20260902074003 80 0 0.0 0.0 0.00 0.08 0.00 59 1001.7
20260902073002 80 0 0.0 0.0 0.00 0.08 0.00 59 1000.9
20260902072002 80 0 0.0 0.0 0.00 0.08 0.00 59 1001.2
20260902071003 80 0 0.0 0.0 0.00 0.08 0.00 59 1000.7
20260902065002 80 0 0.0 0.0 0.00 0.08 0.00 59 1000.4
20260902064002 80 0 0.0 0.0 0.00 0.08 0.00 59 1000.3
20260902061002 80 0 0.0 0.0 0.00 0.08 0.00 59 1000.3
20260902055002 80 0 0.0 0.0 0.00 0.08 0.00 59 1000.1
20260902054002 80 0 0.0 0.0 0.00 0.08 0.00 59 999.5
20260902053003 80 0 0.0 0.0 0.00 0.08 0.00 59 999.9
20260902052002 80 0 0.0 0.0 0.00 0.08 0.00 59 999.3
20260902051003 80 0 0.0 0.0 0.00 0.08 0.00 59 999.7
20260902045002 80 0 0.0 0.0 0.00 0.08 0.00 59 999.2
20260902042002 80 0 0.0 0.0 0.00 0.08 0.00 59 998.3
20260902040003 80 0 0.0 0.0 0.00 0.08 0.00 59 998.2
20260902035002 80 0 0.0 0.0 0.00 0.08 0.08 59 997.6
20260902034003 80 0 0.0 0.0 0.00 0.08 0.08 59 997.9
20260902033002 80 0 0.0 0.0 0.00 0.08 0.08 59 996.9
20260902032003 80 0 0.0 0.0 0.00 0.08 0.08 59 997.3
20260902031002 80 0 0.0 0.0 0.00 0.08 0.08 59 1005.9
20260902030002 80 0 0.0 0.0 0.00 0.08 0.08 59 996.9
20260902025003 80 0 0.0 0.0 0.00 0.08 0.08 59 1005.3
20260902024003 80 0 0.0 0.0 0.00 0.08 0.08 59 1005.9
20260902023002 80 0 0.0 0.0 0.00 0.08 0.08 59 996.9
20260902022003 80 0 0.0 0.0 0.00 0.08 0.08 59 1005.1
20260902021003 80 0 0.0 0.0 0.00 0.08 0.08 59 1005.2
20260902015003 80 0 0.0 0.0 0.00 0.08 0.08 59 1005.8
20260902014002 80 0 0.0 0.0 0.00 0.08 0.08 59 996.7
20260902013003 80 0 0.0 0.0 0.00 0.08 0.08 59 997.2
20260902012002 80 0 0.0 0.0 0.00 0.08 0.08 59 997.3
20260902011003 80 0 0.0 0.0 0.00 0.08 0.08 59 997.6
20260902010003 80 0 0.0 0.0 0.00 0.08 0.08 59 998.0
20260902005002 80 0 0.0 0.0 0.00 0.08 0.08 59 998.3
20260902004002 80 0 0.0 0.0 0.00 0.08 0.08 59 998.8
20260902002004 80 0 0.0 0.0 0.00 0.08 0.08 59 999.4
20260902001003 80 0 0.0 0.0 0.00 0.08 0.08 59 999.9
20260902000003 80 0 0.0 0.0 0.00 0.08 0.08 59 1000.5
20260901235002 80 0 0.0 0.0 0.00 0.08 0.08 59 1001.3
20260901234002 80 0 0.0 0.0 0.00 0.08 0.08 58 1002.1
20260901233003 90 314 6.0 7.0 0.00 0.08 0.08 43 1002.9
20260901232003 90 314 6.0 7.0 0.00 0.08 0.08 43 1001.9
20260901231002 90 314 6.0 7.0 0.00 0.08 0.08 43 1001.9
20260901230003 90 314 6.0 7.0 0.00 0.08 0.08 43 1002.5
20260901225002 90 314 6.0 7.0 0.00 0.08 0.08 43 1002.3